Regional Weather Roundup
Issued by NWS

Home | Current Version | Previous Version | Text Only | Print | Product List | Glossary Off
Versions: 1 2 3 4 5 6 7 8 9 10 11 12 13 14 15 16 17 18 19 20 21 22 23 24 25 26 27 28 29 30 31 32 33 34 35 36 37 38 39 40 41 42 43 44 45 46 47 48 49 50

000
ASUS43 KBIS 201110
RWRND

NORTH DAKOTA REGIONAL WEATHER ROUNDUP
NATIONAL WEATHER SERVICE BISMARCK ND
500 AM CST MON FEB 20 2017

NOTE: "FAIR" INDICATES FEW OR NO CLOUDS BELOW 12,000 FEET WITH NO
SIGNIFICANT WEATHER AND/OR OBSTRUCTIONS TO VISIBILITY.


NDZ001>003-009>011-017-201200-
NORTHWEST NORTH DAKOTA

CITY           SKY/WX    TMP DP  RH WIND       PRES   REMARKS
WILLISTON      MOCLDY    33  32  96 W6        29.66R
MINOT          CLOUDY    35  32  88 NW9       29.61R
MINOT AFB      CLOUDY    33  32  97 NW13      29.60R
$$

NDZ018>021-031>035-040>046-201200-
SOUTHWEST NORTH DAKOTA

CITY           SKY/WX    TMP DP  RH WIND       PRES   REMARKS
BISMARCK       LGT RAIN  38  35  89 NW12      29.58R
DICKINSON      CLOUDY    36  33  89 NW13      29.62R
GARRISON         N/A     34  31  88 NW14      29.60R
HETTINGER ARPT CLOUDY    38  33  82 NW10      29.65R
$$

NDZ004>008-012>016-024-026-027-054-201200-
NORTHEAST NORTH DAKOTA

CITY           SKY/WX    TMP DP  RH WIND       PRES   REMARKS
GRAND FORKS    CLOUDY    39  36  89 SE8       29.55F FOG
GRND FRKS AFB  FOG       37  37 100 CALM      29.57R VSB 1/2
DEVILS LAKE    CLOUDY    36  36 100 W9        29.56S FOG
$$

NDZ022-023-025-028>030-036>039-047>053-201200-
SOUTHEAST NORTH DAKOTA

CITY           SKY/WX    TMP DP  RH WIND       PRES   REMARKS
FARGO          CLOUDY    52  49  89 SE13      29.58F
JAMESTOWN      FOG       37  37 100 N5        29.53S VSB 1/4
$$





USA.gov is the U.S. government's official web portal to all federal, state and local government web resources and services.